Weather Roundup
Issued by NWS Corpus Christi, TX

Home | Current Version | Previous Version | Text Only | Print | Product List | Glossary On
Versions: 1 2 3 4 5 6 7 8 9 10 11 12 13 14 15 16 17 18 19 20 21 22 23 24 25 26 27 28 29 30 31 32 33 34 35 36 37 38 39 40 41 42 43 44 45 46 47 48 49 50
326
ASUS44 KCRP 090010
HRRCRP

SOUTH TEXAS REGIONAL WEATHER ROUNDUP
NATIONAL WEATHER SERVICE CORPUS CHRISTI TX
600 PM CST THU DEC 08 2016


TXZ229>244-090100-
...CORPUS CHRISTI AREA OBSERVATIONS...

CITY           SKY/WX    TMP DP  RH WIND       PRES   REMARKS
CORPUS CHRISTI CLOUDY    43  39  86 N22G31    30.46R
NAS CORPUS CHR CLOUDY    43  39  86 N30G36    30.44R
ROCKPORT         N/A    N/A N/A N/A MISG      30.45R
KINGSVILLE NAS CLOUDY    44  41  89 N20G25    30.47R
ALICE            N/A    N/A N/A N/A MISG      30.48R
ORANGE GROVE   CLOUDY    41  39  93 N20G26    30.50R
FALFURRIAS     CLOUDY    44  39  82 N16       30.46S
$$

...VICTORIA AREA OBSERVATIONS...

CITY           SKY/WX    TMP DP  RH WIND       PRES   REMARKS
VICTORIA       CLOUDY    44  36  73 N15G22    30.48R
BEEVILLE       RAIN      42  40  92 N12       30.49S
PLEASANTON     CLOUDY    44  29  55 N18       30.53R
SAN ANTONIO    CLOUDY    40  24  53 N15G22    30.54R WCI  32
$$

...LAREDO AREA OBSERVATIONS...

CITY           SKY/WX    TMP DP  RH WIND       PRES   REMARKS
LAREDO         CLOUDY    45  35  68 N20       30.51R
COTULLA        CLOUDY    47  30  51 N8        30.53R
DEL RIO        CLOUDY    42  28  57 N8        30.57R
MCALLEN        CLOUDY    47  41  80 N17G29    30.45R
HEBBRONVILLE   CLOUDY    42  38  85 N13       30.47R
$$

...OTHER TEXAS OBSERVATIONS...

CITY           SKY/WX    TMP DP  RH WIND       PRES   REMARKS
BROWNSVILLE    LGT RAIN  46  43  89 NW17G35   30.38R FOG
HOUSTON        CLOUDY    45  33  63 N17       30.48R
COL. STATION   MOCLDY    40  26  57 N16       30.54R WCI  31
AUSTIN         CLOUDY    39  24  55 N18G28    30.56R WCI  30
WACO           CLOUDY    35  21  56 N15       30.61R WCI  25
FORT WORTH     CLOUDY    36  14  40 N14       30.60S WCI  27
WICHITA FALLS  PTCLDY    27  13  55 N8        30.64S
LUBBOCK        CLOUDY    28  13  53 E5        30.53S
EL PASO        MOCLDY    39  24  55 E10       30.38R WCI  32
$$

...MARINE OBSERVATIONS...

STATION/POSITION TIME  SKY/WX   TEMP    WIND        PRES    VSBY  WAVE   SWELL
                                AIR SEA DIR/SP/G                  HT/PER HT/PER
                 (UTC)          (F)     (DEG/KT/KT) (MB)    (MI)  (FT/S) (FT/S)
PORT ARANSAS     0000            46 62  350/ 21/ 25 1030.4R
BUOY 90 E PORT A 2350            58 76   10/ 29/ 33 1026.5R        12/ 8
BUOY 45 SE BAFFI 2350            59 76  360/ 27/ 33 1026.4R        12/10   7/10
BUOY 200 E PT IS 2350            72 77   40/ 27/ 35 1019.1R        11/ 7
BUOY 15 E GALVES 2350            51 65   10/ 25/ 33 1028.4R         6/ 6
$$




USA.gov is the U.S. government's official web portal to all federal, state and local government web resources and services.